Location: Chimay
(50.0486°N, 4.3171°E)
Time: 00:01:49
(UTC+00:00)

Cosmos 2061 Rocket - Pass Details

Date: 08 August 2020
Orbit: 966 x 1012 km, 82.9° (Epoch: 23 September)

Event Time Altitude Azimuth Distance (km) Brightness Sun altitude
Exits shadow 22:41:20 42° 188° (S) 1,353 4.3 -22.5°
Maximum altitude 22:43:38 90° 200° (SSW) 977 3.9 -22.6°
Drops below altitude 10° 22:49:52 10° 10° (N) 2,719 7.2 -22.9°
Sets 22:52:23 0° 10° (N) 3,670 8.1 -23.0°
